Point Salines, Grenada

5:51 AM AST on February 18, 2018 (GMT -0400)
Point Salines International

Weather History for TGPY - February, 2013

Change the Weather History Date:

Sunday, February 3, 2013

  Actual Average Record
Temperature  
Mean Temperature 78 °F -  
Max Temperature 85 °F 83 °F 86 °F (2014)
Min Temperature 70 °F 73 °F 70 °F (2013)
Cooling Degree Days 12    
Growing Degree Days 28 (Base 50)    
Moisture  
Dew Point 69 °F    
Average Humidity 70    
Maximum Humidity 89    
Minimum Humidity 52    
Precipitation  
Precipitation 0.00 in - - ()
Sea Level Pressure  
Sea Level Pressure 29.92 in    
Wind  
Wind Speed 16 mph ()    
Max Wind Speed 25 mph    
Max Gust Speed -    
Visibility 8.2 miles    
Events      
Averages and records for this station are not official NWS values.
T = Trace of Precipitation, MM = Missing Value Source: Averaged Metar Reports

Daily Weather History Graph

Daily Weather History Graph

Search for Another Location

Airport or City:

Trip Planner

Search our weather history database for the weather conditions in past years. The results will help you decide how hot, cold, wet, or windy it might be!

Date:

Astronomy

Feb. 03, 2013 Rise Set
Actual Time 6:31 AM AST 6:10 PM AST
Civil Twilight 6:09 AM AST 6:32 PM AST
Nautical Twilight 5:44 AM AST 6:57 PM AST
Astronomical Twilight 5:19 AM AST 7:22 PM AST
Moon No Moon Rise 11:49 AM AST (2/3)
Length of Visible Light 12h 22m
Length of Day
11h 38m
Waning Gibbous, 49% of the Moon is Illuminated
Feb 3
Waning Gibbous
Feb 10
New
Feb 17
First Quarter
Feb 25
Full
Mar 4
Last Quarter

Hourly Weather History & Observations

Time (AST) Temp. Heat Index Dew Point Humidity Pressure Visibility Wind Dir Wind Speed Gust Speed Precip Events Conditions
12:00 AM 75.2 °F - 71.6 °F 89% 29.95 in 6.2 mi ENE 15.0 mph - N/A   Mostly Cloudy
1:00 AM 75.2 °F - 71.6 °F 89% 29.95 in 6.2 mi East 11.5 mph - N/A   Mostly Cloudy
2:00 AM 76 °F - 71 °F 78% 29.93 in 9 mi East 16.1 mph - -   Widespread Dust
2:00 AM 77.0 °F - 69.8 °F 78% 29.92 in 6.2 mi East 16.1 mph - N/A   Mostly Cloudy
3:00 AM 75.2 °F - 69.8 °F 83% 29.89 in 6.2 mi East 18.4 mph - N/A   Mostly Cloudy
4:00 AM 75.2 °F - 69.8 °F 83% 29.89 in 6.2 mi East 20.7 mph - N/A   Mostly Cloudy
5:00 AM 76 °F - 69 °F 73% 29.91 in 9 mi East 20.7 mph - -   Partly Cloudy
5:00 AM 77.0 °F - 69.8 °F 78% 29.89 in 6.2 mi East 20.7 mph - N/A   Scattered Clouds
6:00 AM 77.0 °F - 68.0 °F 74% 29.92 in 6.2 mi East 21.9 mph - N/A   Partly Cloudy
7:00 AM 77.0 °F - 68.0 °F 74% 29.92 in 6.2 mi East 23.0 mph - N/A   Partly Cloudy
8:00 AM 79 °F - 68 °F 62% 29.94 in 14 mi East 23.0 mph - -   Widespread Dust
8:00 AM 78.8 °F - 68.0 °F 69% 29.95 in 6.2 mi East 23.0 mph - N/A   Partly Cloudy
9:00 AM 80.6 °F 83.9 °F 69.8 °F 70% 29.95 in 6.2 mi East 21.9 mph - N/A   Partly Cloudy
10:00 AM 82.4 °F 85.4 °F 68.0 °F 62% 29.98 in 6.2 mi East 13.8 mph - N/A   Partly Cloudy
11:00 AM 83 °F - 68 °F 52% 29.98 in 14 mi East 24.2 mph - -   Widespread Dust
11:00 AM 82.4 °F 85.4 °F 68.0 °F 62% 29.98 in 6.2 mi East 24.2 mph - N/A   Partly Cloudy
12:00 PM 82.4 °F 85.4 °F 68.0 °F 62% 29.95 in 6.2 mi ESE 23.0 mph - N/A   Partly Cloudy
1:00 PM 84.2 °F 88.4 °F 69.8 °F 62% 29.92 in 6.2 mi East 25.3 mph - N/A   Partly Cloudy
2:00 PM 82 °F - 68 °F 54% 29.90 in 16 mi East 18.4 mph - -   Scattered Clouds
2:00 PM 82.4 °F 85.4 °F 68.0 °F 62% 29.89 in 6.2 mi East 18.4 mph - N/A   Partly Cloudy
3:00 PM 84.2 °F 88.4 °F 69.8 °F 62% 29.89 in 6.2 mi ESE 21.9 mph - N/A   Partly Cloudy
4:00 PM 82.4 °F 85.4 °F 68.0 °F 62% 29.89 in 6.2 mi East 20.7 mph - N/A   Partly Cloudy
5:00 PM 81 °F - 66 °F 52% 29.89 in 17 mi ESE 20.7 mph - -   Scattered Clouds
5:00 PM 80.6 °F 82.7 °F 66.2 °F 61% 29.89 in - ESE 20.7 mph - N/A   Clear
6:00 PM 78.8 °F - 68.0 °F 69% 29.89 in 6.2 mi ESE 12.7 mph - N/A   Partly Cloudy
7:00 PM 77.0 °F - 68.0 °F 74% 29.92 in 6.2 mi East 12.7 mph - N/A   Partly Cloudy
8:00 PM 76 °F - 67 °F 67% 29.94 in 16 mi East 11.5 mph - -   Scattered Clouds
8:00 PM 75.2 °F - 68.0 °F 78% 29.92 in 6.2 mi East 11.5 mph - N/A   Partly Cloudy
9:00 PM 77.0 °F - 68.0 °F 74% 29.92 in 6.2 mi East 8.1 mph - N/A   Partly Cloudy
10:00 PM 77.0 °F - 66.2 °F 69% 29.95 in 6.2 mi East 15.0 mph - N/A   Partly Cloudy
11:00 PM 77 °F - 68 °F 66% 29.94 in 16 mi East 11.5 mph - -   Scattered Clouds
11:00 PM 77.0 °F - 68.0 °F 74% 29.92 in 6.2 mi East 11.5 mph - N/A   Partly Cloudy